{"data":{"norad_id":69368,"epoch":"2026-09-19T23:52:50.138400Z","epoch_age_seconds":72594,"freshness":"FRESH","line1":"1 69368U 26123R   26262.99502475  .00025326  00000+0  75769-3 0  9999","line2":"2 69368  53.1587 143.9812 0000762  51.3922 308.7149 15.34419889 16795","mean_motion":15.34419889,"eccentricity":7.62e-5,"inclination_deg":53.1587,"raan_deg":143.9812,"arg_perigee_deg":51.3922,"mean_anomaly_deg":308.7149,"bstar":0.00075769,"rev_number":1679,"period_min":93.846541635906,"perigee_km":462.12285902438,"apogee_km":463.16539406806,"semimajor_km":6840.7811265462,"source":"CELESTRAK","updated_at":"2026-09-20T09:00:44.167423Z"}}